1998-067TS

Last updated on Sat Jan 28 2023 00:02:07 GMT+0000 (Coordinated Universal Time)

1 53307U 98067TS 23027.69033740 .14957032 12382-4 10456-2 0 9993 2 53307 51.6114 283.1092 0006346 257.3522 202.1611 16.40239376 29799

Satellite not in orbit